CW0529 Weather Reports


time (UTC)temp
C
wind
direction
speed
KPH
gust
KPH
rain 1hr
cm
rain 24hr
cm
rain mn
cm
humidity
%
barometer
mb
20260510044723 12 178 0.0 0.0 0.00 0.00 0.00 96 1036.1
20260510044221 12 174 0.0 0.0 0.00 0.00 0.00 95 1036.0
20260510043715 12 176 0.0 0.0 0.00 0.00 0.00 95 1035.9
20260510043213 12 181 0.0 0.0 0.00 0.00 0.00 94 1035.8
20260510042710 12 181 0.0 0.0 0.00 0.00 0.00 94 1035.9
20260510042206 12 182 0.0 0.0 0.00 0.00 0.00 93 1035.9
20260510041703 12 182 0.0 0.0 0.00 0.00 0.00 93 1036.2
20260510041200 12 181 0.0 0.0 0.00 0.00 0.00 93 1036.0
20260510040657 12 180 0.0 0.0 0.00 0.00 0.00 92 1036.1
20260510040154 13 181 0.0 0.0 0.00 0.00 0.00 91 1035.9
20260510035649 13 181 0.0 0.0 0.00 0.00 0.00 91 1035.8
20260510035145 13 183 0.0 0.0 0.00 0.00 0.00 91 1035.9
20260510034642 13 186 0.0 0.0 0.00 0.00 0.00 90 1035.7
20260510034139 13 187 0.0 1.6 0.00 0.00 0.00 90 1036.0
20260510033635 13 190 0.0 1.6 0.00 0.00 0.00 90 1036.1
20260510033133 13 179 0.0 0.0 0.00 0.00 0.00 90 1036.0
20260510032629 13 178 0.0 0.0 0.00 0.00 0.00 90 1035.8
20260510032124 13 177 0.0 0.0 0.00 0.00 0.00 89 1035.8
20260510031620 13 177 0.0 0.0 0.00 0.00 0.00 88 1035.7
20260510031117 13 177 0.0 0.0 0.00 0.00 0.00 88 1035.7
20260510030611 13 176 0.0 0.0 0.00 0.00 0.00 87 1035.7
20260510030109 14 176 0.0 0.0 0.00 0.00 0.00 86 1035.6
20260510025606 14 176 0.0 0.0 0.00 0.00 0.00 85 1035.5
20260510025103 15 173 0.0 1.6 0.00 0.00 0.00 85 1035.5
20260510024600 15 176 0.0 0.0 0.00 0.00 0.00 84 1035.8
20260510024056 15 178 0.0 0.0 0.00 0.00 0.00 84 1035.4
20260510023553 15 176 0.0 0.0 0.00 0.00 0.00 84 1035.6
20260510023050 15 179 0.0 0.0 0.00 0.00 0.00 84 1035.3
20260510022549 15 178 0.0 0.0 0.00 0.00 0.00 84 1035.2
20260510022044 15 180 0.0 0.0 0.00 0.00 0.00 83 1035.2
20260510021540 15 180 0.0 0.0 0.00 0.00 0.00 82 1035.2
20260510021038 15 179 0.0 0.0 0.00 0.00 0.00 81 1035.1
20260510020532 16 174 0.0 0.0 0.00 0.00 0.00 79 1035.1
20260510020028 16 179 0.0 0.0 0.00 0.00 0.00 77 1034.9
20260510015524 17 181 0.0 0.0 0.00 0.00 0.00 75 1034.8
20260510015020 17 187 0.0 0.0 0.00 0.00 0.00 73 1034.7
20260510014517 17 187 0.0 0.0 0.00 0.00 0.00 72 1034.7
20260510014014 17 187 0.0 0.0 0.00 0.00 0.00 73 1034.6
20260510013508 18 187 0.0 0.0 0.00 0.00 0.00 71 1034.7
20260510013005 18 187 0.0 0.0 0.00 0.00 0.00 70 1034.6
20260510012459 18 187 0.0 0.0 0.00 0.00 0.00 70 1034.4
20260510011954 18 186 0.0 0.0 0.00 0.00 0.00 70 1034.5
20260510011449 19 186 0.0 0.0 0.00 0.00 0.00 68 1034.5
20260510010945 20 186 0.0 0.0 0.00 0.00 0.00 67 1034.5
20260510010443 20 186 0.0 0.0 0.00 0.00 0.00 67 1034.2
20260510005940 20 185 0.0 0.0 0.00 0.00 0.00 68 1034.4
20260510005436 20 184 0.0 0.0 0.00 0.00 0.00 67 1034.2
20260510004933 20 184 0.0 0.0 0.00 0.00 0.00 66 1034.2
20260510004430 20 184 0.0 0.0 0.00 0.00 0.00 64 1033.9
20260510003928 21 184 0.0 0.0 0.00 0.00 0.00 63 1034.1
20260510003425 21 184 0.0 0.0 0.00 0.00 0.00 60 1034.0
20260510002924 22 182 0.0 0.0 0.00 0.00 0.00 59 1034.1
20260510002421 22 188 0.0 0.0 0.00 0.00 0.00 59 1033.8
20260510001918 22 188 0.0 0.0 0.00 0.00 0.00 56 1034.0
20260510001416 22 188 0.0 0.0 0.00 0.00 0.00 56 1034.0
20260510000913 23 186 0.0 0.0 0.00 0.00 0.00 54 1033.9
20260510000411 23 182 0.0 0.0 0.00 0.00 0.00 52 1033.7
20260509235905 24 182 0.0 0.0 0.00 0.00 0.00 50 1033.8
20260509235402 24 182 1.6 3.2 0.00 0.00 0.00 49 1033.8
20260509234858 25 182 0.0 0.0 0.00 0.00 0.00 48 1033.8
20260509234356 25 187 0.0 1.6 0.00 0.00 0.00 48 1033.8
20260509233854 25 195 0.0 1.6 0.00 0.00 0.00 48 1033.7
20260509233351 25 183 0.0 0.0 0.00 0.00 0.00 46 1033.7
20260509232846 26 190 0.0 0.0 0.00 0.00 0.00 45 1033.7
20260509232345 26 199 0.0 0.0 0.00 0.00 0.00 48 1034.0
20260509231840 26 190 0.0 1.6 0.00 0.00 0.00 44 1033.7
20260509231337 26 189 0.0 0.0 0.00 0.00 0.00 44 1033.7
20260509230835 26 196 1.6 3.2 0.00 0.00 0.00 45 1033.7
20260509230332 26 358 1.6 3.2 0.00 0.00 0.00 47 1033.5
20260509225827 26 191 1.6 3.2 0.00 0.00 0.00 46 1033.6
20260509225324 25 206 0.0 0.0 0.00 0.00 0.00 50 1033.6
20260509224820 25 178 0.0 0.0 0.00 0.00 0.00 50 1033.4
20260509224316 26 190 0.0 0.0 0.00 0.00 0.00 49 1033.5
20260509223813 26 166 0.0 0.0 0.00 0.00 0.00 47 1033.2
20260509223310 26 216 0.0 0.0 0.00 0.00 0.00 49 1033.3
20260509222806 26 194 0.0 0.0 0.00 0.00 0.00 51 1033.4
20260509222256 26 192 0.0 0.0 0.00 0.00 0.00 49 1033.7
20260509221752 26 217 0.0 0.0 0.00 0.00 0.00 50 1033.4
20260509221249 24 191 0.0 0.0 0.00 0.00 0.00 56 1033.6
20260509220745 24 229 0.0 0.0 0.00 0.00 0.00 55 1033.4
20260509220242 24 188 4.8 4.8 0.00 0.00 0.00 53 1033.4
20260509215736 24 171 4.8 4.8 0.00 0.00 0.00 54 1033.4
20260509215233 25 184 0.0 3.2 0.00 0.00 0.00 52 1033.2
20260509214731 25 178 0.0 3.2 0.00 0.00 0.00 53 1033.4
20260509214227 25 78 4.8 4.8 0.00 0.00 0.00 54 1033.3
20260509213725 25 343 0.0 8.0 0.00 0.00 0.00 54 1033.2
20260509213220 25 189 0.0 0.0 0.00 0.00 0.00 57 1033.1
20260509212718 25 138 3.2 4.8 0.00 0.00 0.00 54 1033.1
20260509212214 26 160 0.0 4.8 0.00 0.00 0.00 53 1033.2
20260509211710 26 144 3.2 8.0 0.00 0.00 0.00 56 1033.2
20260509211208 25 194 0.0 0.0 0.00 0.00 0.00 55 1033.2
20260509210704 24 164 1.6 1.6 0.00 0.00 0.00 57 1033.1
20260509210202 25 61 3.2 4.8 0.00 0.00 0.00 55 1033.0
20260509205701 25 165 4.8 4.8 0.00 0.00 0.00 54 1033.2
20260509205201 24 173 0.0 4.8 0.00 0.00 0.00 57 1033.2
20260509204657 25 175 0.0 3.2 0.00 0.00 0.00 55 1033.2
20260509204154 26 168 0.0 3.2 0.00 0.00 0.00 55 1033.1
20260509203650 25 193 0.0 4.8 0.00 0.00 0.00 55 1033.1
20260509203148 25 199 1.6 3.2 0.00 0.00 0.00 57 1033.3
20260509202643 25 219 3.2 8.0 0.00 0.00 0.00 54 1033.2
20260509202138 25 211 1.6 4.8 0.00 0.00 0.00 55 1033.3
20260509201634 26 189 1.6 3.2 0.00 0.00 0.00 54 1033.2
20260509201132 25 208 0.0 3.2 0.00 0.00 0.00 56 1033.4
20260509200627 25 158 8.0 11.3 0.00 0.00 0.00 56 1033.6
20260509200123 25 227 1.6 3.2 0.00 0.00 0.00 60 1033.4
20260509195619 25 163 4.8 11.3 0.00 0.00 0.00 56 1033.5
20260509195113 25 213 3.2 3.2 0.00 0.00 0.00 55 1033.8
20260509194613 25 174 1.6 8.0 0.00 0.00 0.00 58 1033.8
20260509194111 25 197 6.4 11.3 0.00 0.00 0.00 58 1034.0
20260509193606 25 185 6.4 12.9 0.00 0.00 0.00 57 1034.0
20260509193103 25 179 3.2 4.8 0.00 0.00 0.00 59 1034.0
20260509192559 25 179 3.2 4.8 0.00 0.00 0.00 60 1034.0
20260509192054 24 192 0.0 1.6 0.00 0.00 0.00 60 1034.0
20260509191549 24 161 0.0 4.8 0.00 0.00 0.00 63 1034.0
20260509191045 23 190 1.6 8.0 0.00 0.00 0.00 62 1034.1
20260509190542 23 196 1.6 9.7 0.00 0.00 0.00 63 1034.0
20260509190040 24 172 1.6 4.8 0.00 0.00 0.00 59 1033.9
20260509185537 24 239 4.8 9.7 0.00 0.00 0.00 63 1034.0
20260509185033 23 219 4.8 4.8 0.00 0.00 0.00 62 1033.8
20260509184532 23 190 3.2 9.7 0.00 0.00 0.00 63 1034.0
20260509184027 23 219 3.2 3.2 0.00 0.00 0.00 60 1034.2
20260509183523 23 181 1.6 4.8 0.00 0.00 0.00 63 1034.2
20260509183019 23 153 3.2 8.0 0.00 0.00 0.00 62 1033.9
20260509182515 23 193 3.2 4.8 0.00 0.00 0.00 62 1033.9
20260509182013 24 12 6.4 12.9 0.00 0.00 0.00 59 1033.9
20260509181511 23 194 3.2 4.8 0.00 0.00 0.00 62 1033.8
20260509181008 23 194 1.6 3.2 0.00 0.00 0.00 67 1033.4
20260509180503 23 317 6.4 9.7 0.00 0.00 0.00 64 1033.6
20260509180001 22 174 1.6 3.2 0.00 0.00 0.00 64 1033.9
20260509175456 23 200 4.8 8.0 0.00 0.00 0.00 63 1033.7
20260509174953 23 207 3.2 4.8 0.00 0.00 0.00 64 1033.8
20260509174450 23 186 0.0 1.6 0.00 0.00 0.00 64 1033.7
20260509173944 23 217 1.6 4.8 0.00 0.00 0.00 67 1033.8
20260509173439 22 230 3.2 8.0 0.00 0.00 0.00 64 1033.8
20260509172936 22 181 1.6 8.0 0.00 0.00 0.00 65 1033.8
20260509172433 22 185 0.0 4.8 0.00 0.00 0.00 68 1034.1
20260509171928 21 70 3.2 3.2 0.00 0.00 0.00 72 1033.9
20260509171424 21 259 6.4 8.0 0.00 0.00 0.00 69 1034.0
20260509170921 21 185 0.0 4.8 0.00 0.00 0.00 68 1034.1
20260509170416 21 169 0.0 1.6 0.00 0.00 0.00 70 1034.1
20260509165913 21 212 1.6 3.2 0.00 0.00 0.00 68 1034.2
20260509165407 22 179 1.6 1.6 0.00 0.00 0.00 68 1034.1
20260509164903 21 167 0.0 0.0 0.00 0.00 0.00 73 1034.1
20260509164359 21 219 1.6 4.8 0.00 0.00 0.00 69 1034.3
20260509163855 22 254 4.8 11.3 0.00 0.00 0.00 68 1034.2
20260509163352 22 203 6.4 9.7 0.00 0.00 0.00 68 1034.2
20260509162851 22 205 3.2 4.8 0.00 0.00 0.00 69 1034.0
20260509162350 21 158 1.6 3.2 0.00 0.00 0.00 71 1034.0
20260509161846 21 191 1.6 3.2 0.00 0.00 0.00 71 1034.1
20260509161342 20 190 1.6 11.3 0.00 0.00 0.00 74 1034.4
20260509160838 21 225 4.8 8.0 0.00 0.00 0.00 71 1034.3
20260509160334 21 200 3.2 11.3 0.00 0.00 0.00 72 1034.4
20260509155829 21 182 0.0 3.2 0.00 0.00 0.00 72 1034.2
20260509155326 21 177 0.0 3.2 0.00 0.00 0.00 72 1034.1
20260509154823 20 178 1.6 8.0 0.00 0.00 0.00 75 1034.3
20260509154319 20 215 1.6 8.0 0.00 0.00 0.00 75 1034.0
20260509153816 20 191 1.6 8.0 0.00 0.00 0.00 76 1034.1
20260509153313 20 207 3.2 4.8 0.00 0.00 0.00 78 1034.0
20260509152810 19 4 3.2 4.8 0.00 0.00 0.00 78 1034.0
20260509152306 19 257 6.4 9.7 0.00 0.00 0.00 77 1034.0
20260509151803 20 189 0.0 3.2 0.00 0.00 0.00 77 1034.0
20260509151259 18 228 0.0 9.7 0.00 0.00 0.00 79 1034.1
20260509150758 19 194 4.8 9.7 0.00 0.00 0.00 78 1034.0
20260509150255 19 169 6.4 11.3 0.00 0.00 0.00 79 1033.7
20260509145752 19 242 8.0 11.3 0.00 0.00 0.00 78 1033.9
20260509145251 18 280 4.8 8.0 0.00 0.00 0.00 81 1033.9
20260509144748 18 190 0.0 4.8 0.00 0.00 0.00 82 1033.9
20260509144245 18 210 0.0 3.2 0.00 0.00 0.00 83 1034.1
20260509143742 17 201 1.6 8.0 0.00 0.00 0.00 83 1034.0
20260509143240 17 179 3.2 8.0 0.00 0.00 0.00 83 1033.8
20260509142736 17 162 4.8 4.8 0.00 0.00 0.00 84 1033.8
20260509142232 17 222 1.6 4.8 0.00 0.00 0.00 84 1033.9
20260509141728 17 187 1.6 3.2 0.00 0.00 0.00 85 1033.8
20260509141226 17 162 3.2 3.2 0.00 0.00 0.00 85 1033.7
20260509140722 17 204 1.6 3.2 0.00 0.00 0.00 84 1033.9
20260509140222 17 176 4.8 4.8 0.00 0.00 0.00 84 1033.8
20260509135716 17 190 0.0 8.0 0.00 0.00 0.00 83 1033.9
20260509135214 17 169 6.4 8.0 0.00 0.00 0.00 83 1033.8
20260509134711 17 141 3.2 4.8 0.00 0.00 0.00 84 1033.4
20260509134208 16 163 1.6 8.0 0.00 0.00 0.00 85 1033.6
20260509133705 16 167 3.2 4.8 0.00 0.00 0.00 87 1033.7
20260509133202 15 155 3.2 4.8 0.00 0.00 0.00 88 1033.6
20260509132701 15 176 1.6 1.6 0.00 0.00 0.00 89 1033.6
20260509132159 15 198 1.6 4.8 0.00 0.00 0.00 89 1033.4
20260509131655 15 207 1.6 3.2 0.00 0.00 0.00 89 1033.7
20260509131152 15 180 1.6 4.8 0.00 0.00 0.00 90 1033.5
20260509130647 14 200 0.0 3.2 0.00 0.00 0.00 90 1033.7
20260509130144 14 190 0.0 3.2 0.00 0.00 0.00 90 1033.7
20260509125640 14 188 0.0 3.2 0.00 0.00 0.00 90 1033.7
20260509125137 14 198 1.6 4.8 0.00 0.00 0.00 90 1034.0
20260509124634 14 200 1.6 1.6 0.00 0.00 0.00 90 1033.8
20260509124131 13 116 0.0 3.2 0.00 0.00 0.00 91 1033.9
20260509123629 13 184 1.6 3.2 0.00 0.00 0.00 91 1033.7
20260509123125 13 173 0.0 3.2 0.00 0.00 0.00 91 1033.6
20260509122621 13 181 0.0 4.8 0.00 0.00 0.00 91 1033.5
20260509122119 13 182 0.0 4.8 0.00 0.00 0.00 91 1033.6
20260509121615 13 176 1.6 3.2 0.00 0.00 0.00 91 1033.4
20260509121113 13 181 1.6 1.6 0.00 0.00 0.00 92 1033.4
20260509120611 13 178 0.0 1.6 0.00 0.00 0.00 92 1033.2
20260509120109 13 182 0.0 1.6 0.00 0.00 0.00 92 1033.0
20260509115606 13 194 0.0 3.2 0.00 0.00 0.00 93 1032.9
20260509115103 13 163 3.2 4.8 0.00 0.00 0.00 93 1032.9
20260509114601 13 179 0.0 1.6 0.00 0.00 0.00 94 1032.8
20260509114100 12 189 0.0 0.0 0.00 0.00 0.00 94 1032.7
20260509113558 12 180 1.6 1.6 0.00 0.00 0.00 94 1032.9
20260509113055 12 178 0.0 0.0 0.00 0.00 0.00 94 1032.8
20260509112551 12 183 0.0 0.0 0.00 0.00 0.00 94 1032.8
20260509112048 12 183 0.0 1.6 0.00 0.00 0.00 94 1032.6
20260509111546 12 184 0.0 0.0 0.00 0.00 0.00 94 1032.8
20260509111043 12 181 0.0 0.0 0.00 0.00 0.00 94 1032.8
20260509110540 12 182 0.0 0.0 0.00 0.00 0.00 94 1032.7
20260509110037 11 180 0.0 3.2 0.00 0.00 0.00 94 1032.7
20260509105535 11 185 0.0 0.0 0.00 0.00 0.00 94 1032.7
20260509105032 11 183 0.0 0.0 0.00 0.00 0.00 94 1032.5
20260509104529 12 185 0.0 1.6 0.00 0.00 0.00 94 1032.4
20260509104026 11 187 1.6 1.6 0.00 0.00 0.00 94 1032.7
20260509103523 11 194 0.0 0.0 0.00 0.00 0.00 94 1032.6
20260509103022 11 182 0.0 0.0 0.00 0.00 0.00 94 1032.5
20260509102518 11 184 0.0 0.0 0.00 0.00 0.00 94 1032.5
20260509102015 11 189 0.0 0.0 0.00 0.00 0.00 94 1032.3
20260509101512 11 186 0.0 0.0 0.00 0.00 0.00 94 1032.6
20260509101009 11 191 0.0 0.0 0.00 0.00 0.00 93 1032.9
20260509100506 11 183 0.0 0.0 0.00 0.00 0.00 93 1032.8
20260509100003 11 182 0.0 0.0 0.00 0.00 0.00 93 1033.0
20260509095459 12 183 0.0 0.0 0.00 0.00 0.00 93 1033.0
20260509094956 12 187 0.0 0.0 0.00 0.00 0.00 93 1033.1
20260509094453 12 185 0.0 0.0 0.00 0.00 0.00 93 1033.1
20260509093950 12 184 0.0 0.0 0.00 0.00 0.00 93 1033.0
20260509093448 12 189 0.0 0.0 0.00 0.00 0.00 92 1033.1
20260509092946 12 185 0.0 0.0 0.00 0.00 0.00 92 1032.9
20260509092443 12 181 0.0 0.0 0.00 0.00 0.00 92 1033.1
20260509091942 12 180 0.0 0.0 0.00 0.00 0.00 92 1033.3
20260509091438 12 177 0.0 0.0 0.00 0.00 0.00 92 1033.0
20260509090935 12 187 0.0 0.0 0.00 0.00 0.00 91 1033.3
20260509090433 12 189 0.0 0.0 0.00 0.00 0.00 91 1032.9
20260509085931 12 185 0.0 0.0 0.00 0.00 0.00 91 1032.9
20260509085427 12 180 0.0 1.6 0.00 0.00 0.00 91 1032.9
20260509084923 12 181 0.0 0.0 0.00 0.00 0.00 91 1033.1
20260509084420 12 188 0.0 0.0 0.00 0.00 0.00 91 1033.3
20260509083918 12 189 0.0 0.0 0.00 0.00 0.00 91 1033.4
20260509083415 12 186 0.0 0.0 0.00 0.00 0.00 90 1033.4
20260509082911 12 187 0.0 0.0 0.00 0.00 0.00 90 1033.3
20260509082409 12 182 0.0 0.0 0.00 0.00 0.00 90 1033.3
20260509081905 12 178 0.0 0.0 0.00 0.00 0.00 89 1033.3
20260509081403 12 183 0.0 0.0 0.00 0.00 0.00 89 1033.3
20260509080900 12 183 0.0 0.0 0.00 0.00 0.00 89 1033.4
20260509080358 12 182 0.0 0.0 0.00 0.00 0.00 88 1033.0
20260509075856 12 180 0.0 0.0 0.00 0.00 0.00 88 1033.0
20260509075353 12 187 0.0 0.0 0.00 0.00 0.00 87 1033.0
20260509074850 12 188 0.0 0.0 0.00 0.00 0.00 86 1033.0
20260509074348 12 188 0.0 0.0 0.00 0.00 0.00 86 1033.4
20260509073843 12 190 0.0 0.0 0.00 0.00 0.00 86 1033.3
20260509073340 13 188 0.0 0.0 0.00 0.00 0.00 86 1033.1
20260509072837 13 188 0.0 0.0 0.00 0.00 0.00 85 1032.8
20260509072333 13 188 0.0 0.0 0.00 0.00 0.00 85 1033.1
20260509071830 13 188 0.0 0.0 0.00 0.00 0.00 84 1032.8
20260509071327 13 183 0.0 0.0 0.00 0.00 0.00 84 1033.0
20260509070824 13 185 0.0 0.0 0.00 0.00 0.00 84 1033.0
20260509070321 13 186 0.0 0.0 0.00 0.00 0.00 83 1033.0
20260509065817 13 187 0.0 0.0 0.00 0.00 0.00 83 1033.0
20260509065314 13 187 0.0 0.0 0.00 0.00 0.00 83 1033.1
20260509064809 13 184 0.0 0.0 0.00 0.00 0.00 83 1033.1
20260509064307 13 182 0.0 1.6 0.00 0.00 0.00 83 1033.4
20260509063805 13 190 0.0 0.0 0.00 0.00 0.00 83 1033.4
20260509063301 13 185 0.0 0.0 0.00 0.00 0.00 83 1033.5
20260509062758 13 194 0.0 0.0 0.00 0.00 0.00 82 1033.4
20260509062255 13 190 0.0 0.0 0.00 0.00 0.00 82 1033.8
20260509061752 13 188 0.0 0.0 0.00 0.00 0.00 81 1033.7
20260509061250 13 188 0.0 3.2 0.00 0.00 0.00 81 1033.8
20260509060747 13 189 0.0 0.0 0.00 0.00 0.00 80 1033.8
20260509060243 13 189 0.0 0.0 0.00 0.00 0.00 79 1033.7
20260509055739 14 187 0.0 0.0 0.00 0.00 0.00 79 1033.9
20260509055235 14 171 0.0 3.2 0.00 0.00 0.00 78 1034.0
20260509054732 14 190 0.0 0.0 0.00 0.00 0.00 78 1034.0
20260509054229 14 190 0.0 3.2 0.00 0.00 0.00 78 1033.9
20260509053727 15 222 1.6 3.2 0.00 0.00 0.00 77 1034.0
20260509053224 15 167 1.6 3.2 0.00 0.00 0.00 77 1033.9
20260509052722 15 182 0.0 3.2 0.00 0.00 0.00 76 1034.0
20260509052219 15 168 1.6 1.6 0.00 0.00 0.00 76 1033.9
20260509051717 15 175 0.0 3.2 0.00 0.00 0.00 75 1034.1
20260509051215 15 142 3.2 3.2 0.00 0.00 0.00 74 1033.9
20260509050711 15 184 0.0 3.2 0.00 0.00 0.00 74 1034.0
20260509050208 15 192 3.2 4.8 0.00 0.00 0.00 74 1034.1
20260509045705 15 195 1.6 3.2 0.00 0.00 0.00 73 1033.8